Location: Newark
(49.3808°N, 3.1844°E)
Time: 10:13:05
(UTC+00:00)

Vanguard 1 Rocket - Pass Details

Date: 17 November 2019
Orbit: 650 x 4226 km, 34.3° (Epoch: 08 December)

Event Time Altitude Azimuth Distance (km) Brightness Sun altitude
Rises 08:57:05 0° 251° (WSW) 3,782 10.4 13.5°
Reaches altitude 10° 09:01:07 10° 225° (SW) 3,313 10.4 13.9°
Maximum altitude 09:04:53 14° 198° (SSW) 3,509 11.0 14.3°
Drops below altitude 10° 09:09:38 10° 172° (S) 4,401 12.2 14.7°
Sets 09:17:05 0° 152° (SSE) 6,308 13.6 15.4°
